Location: Unspecified
(0.0000°N, 0.0000°E)
Time: 03:04:36
(UTC+02:00)

Cosmos 1833 Rocket - Visible Passes

Search period start: 26 July 2014 00:00
Search period end: 05 August 2014 00:00
Orbit: 834 x 839 km, 71.0° (Epoch: 25 July)

Date Brightness Start Highest point End Pass type
(mag) Time Alt. Az. Time Alt. Az. Time Alt. Az.
26 Jul 4.7 20:31:59 10° SW 20:37:02 34° WNW 20:42:04 10° N visible
27 Jul 3.5 07:31:23 10° N 07:36:52 58° ENE 07:42:21 10° SSE visible
28 Jul 3.7 07:14:53 10° N 07:20:17 51° ENE 07:25:43 10° SSE visible
29 Jul 3.9 06:58:24 10° N 07:03:43 46° ENE 07:09:03 10° SSE visible
30 Jul 4.0 06:41:56 10° N 06:47:08 41° ENE 06:52:22 10° SE visible
31 Jul 4.2 06:25:29 10° N 06:30:34 36° ENE 06:35:40 10° SE visible
01 Aug 4.4 06:09:03 10° NNE 06:13:59 33° ENE 06:18:57 10° SE visible
02 Aug 4.5 05:52:38 10° NNE 05:57:25 29° ENE 06:02:12 10° SE visible
02 Aug 3.9 07:37:15 10° WNW 07:41:03 19° WSW 07:44:53 10° SSW visible
03 Aug 4.6 05:36:15 10° NNE 05:40:50 26° ENE 05:45:25 10° SE visible
03 Aug 3.8 07:20:22 10° WNW 07:24:28 21° WSW 07:28:36 10° SSW visible
04 Aug 4.7 05:19:54 10° NNE 05:24:15 23° ENE 05:28:37 10° SE visible
04 Aug 3.6 07:03:32 10° NW 07:07:53 23° WSW 07:12:17 10° SSW visible
